{"data":{"norad_id":63044,"epoch":"2026-09-21T21:03:58.260960Z","epoch_age_seconds":46097,"freshness":"FRESH","line1":"1 63044U 25034R   26264.87775765  .00010980  00000+0  33562-3 0  9992","line2":"2 63044  53.1591  75.4121 0000988  88.5269 271.5846 15.34399232 89007","mean_motion":15.34399232,"eccentricity":9.88e-5,"inclination_deg":53.1591,"raan_deg":75.4121,"arg_perigee_deg":88.5269,"mean_anomaly_deg":271.5846,"bstar":0.00033562,"rev_number":8900,"period_min":93.847805054167,"perigee_km":462.02964762465,"apogee_km":463.38139810717,"semimajor_km":6840.8425228659,"source":"CELESTRAK","updated_at":"2026-09-22T09:00:49.747183Z"}}